Jordan Valley, OR

6:04 AM MST on February 24, 2017 (GMT -0700)
Rome State

Weather History for KREO - January, 2013

Change the Weather History Date:

Sunday, January 13, 2013

  Actual Average Record
Temperature  
Mean Temperature 7 °F 29 °F  
Max Temperature 18 °F 38 °F 58 °F (2009)
Min Temperature -4 °F 20 °F -4 °F (2013)
Degree Days  
Heating Degree Days 58 36  
Month to date heating degree days 686 472  
Since 1 July heating degree days 3043 3219  
Cooling Degree Days 0 0  
Month to date cooling degree days 0 0  
Year to date cooling degree days 0 0  
Moisture  
Dew Point 4 °F    
Average Humidity 75    
Maximum Humidity 88    
Minimum Humidity 61    
Precipitation  
Precipitation 0.00 in 0.03 in 0.41 in (1993)
Month to date precipitation 0.22 0.31  
Year to date precipitation 0.22 0.31  
Sea Level Pressure  
Sea Level Pressure 30.40 in    
Wind  
Wind Speed 4 mph (SSE)    
Max Wind Speed 10 mph    
Max Gust Speed 12 mph    
T = Trace of Precipitation, MM = Missing Value Source: NWS Daily Summary

Daily Weather History Graph

Daily Weather History Graph

Search for Another Location

Airport or City:

Trip Planner

Search our weather history database for the weather conditions in past years. The results will help you decide how hot, cold, wet, or windy it might be!

Date:

Astronomy

Jan. 13, 2013 Rise Set
Actual Time 7:19 AM PST 4:41 PM PST
Civil Twilight 6:48 AM PST 5:13 PM PST
Nautical Twilight 6:13 AM PST 5:47 PM PST
Astronomical Twilight 5:39 AM PST 6:21 PM PST
Moon 8:17 AM PST (1/13) 7:29 PM PST (1/13)
Length of Visible Light 10h 24m
Length of Day
9h 22m
Waxing Crescent, 6% of the Moon is Illuminated
Jan 13
Waxing Crescent
Jan 18
First Quarter
Jan 26
Full
Feb 3
Last Quarter
Feb 9
New

Hourly Weather History & Observations

Time (PST) Temp. Windchill Dew Point Humidity Pressure Visibility Wind Dir Wind Speed Gust Speed Precip Events Conditions
12:52 AM 1.9 °F -9.2 °F -2.9 °F 80% 30.32 in - SSW 5.8 mph - N/A   Unknown
1:52 AM -2.9 °F - -7.1 °F 82% 30.34 in - Calm Calm - N/A   Unknown
2:52 AM -2.0 °F -15.4 °F -6.0 °F 83% 30.34 in - WSW 6.9 mph - N/A   Unknown
3:52 AM 3.9 °F -8.2 °F -0.9 °F 80% 30.35 in - SE 6.9 mph - N/A   Unknown
4:52 AM 6.1 °F - 1.0 °F 80% 30.34 in - Calm Calm - N/A   Unknown
5:52 AM 9.0 °F 2.4 °F 5.0 °F 84% 30.36 in - SSE 3.5 mph - N/A   Unknown
6:52 AM 6.1 °F - 1.9 °F 83% 30.38 in - Calm Calm - N/A   Unknown
7:52 AM 7.0 °F - 3.0 °F 84% 30.40 in - Calm Calm - N/A   Unknown
8:52 AM 8.1 °F - 3.0 °F 80% 30.43 in - Calm Calm - N/A   Unknown
9:52 AM 12.0 °F - 6.1 °F 77% 30.43 in - Calm Calm - N/A   Unknown
10:52 AM 14.0 °F - 7.0 °F 74% 30.40 in - Calm Calm - N/A   Unknown
11:52 AM 15.1 °F 6.4 °F 7.0 °F 70% 30.40 in - SE 5.8 mph - N/A   Unknown
12:52 PM 17.1 °F 6.6 °F 8.1 °F 68% 30.38 in - SSE 8.1 mph - N/A   Unknown
1:52 PM 18.0 °F 9.8 °F 7.0 °F 62% 30.40 in - ESE 5.8 mph - N/A   Unknown
2:52 PM 17.1 °F 8.7 °F 7.0 °F 65% 30.42 in - SE 5.8 mph - N/A   Unknown
3:52 PM 14.0 °F 2.9 °F 7.0 °F 74% 30.42 in - SE 8.1 mph - N/A   Unknown
4:52 PM 10.0 °F -2.9 °F 3.9 °F 76% 30.43 in - SE 9.2 mph - N/A   Unknown
5:52 PM 10.0 °F -0.9 °F 3.0 °F 73% 30.43 in - SE 6.9 mph - N/A   Unknown
6:52 PM 12.0 °F 1.5 °F 6.1 °F 77% 30.44 in - SE 6.9 mph - N/A   Unknown
7:52 PM 12.9 °F 6.9 °F 6.1 °F 74% 30.44 in - SSE 3.5 mph - N/A   Unknown
8:52 PM 12.9 °F 5.2 °F 7.0 °F 77% 30.44 in - SSE 4.6 mph - N/A   Unknown
9:52 PM 12.9 °F 3.8 °F 7.0 °F 77% 30.43 in - SSE 5.8 mph - N/A   Unknown
10:52 PM 12.9 °F 5.2 °F 6.1 °F 74% 30.44 in - South 4.6 mph - N/A   Unknown
11:52 PM 9.0 °F 0.6 °F 3.0 °F 77% 30.45 in - South 4.6 mph - N/A   Unknown